Sterling, IL

9:05 PM CST on November 11, 2019 (GMT -0600)
Whiteside County-Bittorf

Weather History for KSQI - September, 2019

Change the Weather History Date:

Tuesday, September 17, 2019

  Actual Average Record
Temperature  
Mean Temperature 70 °F -  
Max Temperature 79 °F 72 °F 91 °F (2018)
Min Temperature 61 °F 49 °F 39 °F (1999)
Cooling Degree Days 4    
Growing Degree Days 20 (Base 50)    
Moisture  
Dew Point 66 °F    
Average Humidity 90    
Maximum Humidity 100    
Minimum Humidity 71    
Precipitation  
Precipitation 0.02 in - - ()
Sea Level Pressure  
Sea Level Pressure 29.89 in    
Wind  
Wind Speed 6 mph ()    
Max Wind Speed 12 mph    
Max Gust Speed -    
Visibility 7.1 miles    
Events      
Averages and records for this station are not official NWS values.
T = Trace of Precipitation, MM = Missing Value Source: Averaged Metar Reports

Daily Weather History Graph

Daily Weather History Graph

Search for Another Location

Airport or City:

Astronomy

Sep. 17, 2019 Rise Set
Actual Time 6:40 AM CDT 7:05 PM CDT
Civil Twilight 6:12 AM CDT 7:32 PM CDT
Nautical Twilight 5:40 AM CDT 8:05 PM CDT
Astronomical Twilight 5:06 AM CDT 8:39 PM CDT
Moon 9:05 PM CDT (9/17) 9:47 AM CDT (9/17)
Length of Visible Light 13h 19m
Length of Day
12h 24m
Waning Gibbous, 89% of the Moon is Illuminated
Sep 17
Waning Gibbous
Sep 21
Last Quarter
Sep 28
New
Oct 5
First Quarter
Oct 13
Full

Hourly Weather History & Observations

Time (CDT) Temp. Dew Point Humidity Pressure Visibility Wind Dir Wind Speed Gust Speed Precip Events Conditions
12:13 AM 62.6 °F 62.6 °F 100% 30.12 in 2.0 mi East 4.6 mph - 0.01 in   Clear
12:23 AM 62.6 °F 62.6 °F 100% 30.12 in 5.0 mi Calm Calm - 0.01 in   Clear
12:56 AM 62.1 °F 62.1 °F 100% 29.73 in 10.0 mi East 4.6 mph - 0.01 in   Clear
1:56 AM 62.1 °F 62.1 °F 100% 29.73 in 7.0 mi East 3.5 mph - N/A   Clear
2:56 AM 61.0 °F 61.0 °F 100% 29.74 in 5.0 mi East 6.9 mph - N/A   Partly Cloudy
3:10 AM 62.6 °F 62.6 °F 100% 30.14 in 3.0 mi East 8.1 mph - N/A   Mostly Cloudy
3:17 AM 62.6 °F 62.6 °F 100% 30.14 in 2.5 mi East 11.5 mph - N/A   Mostly Cloudy
3:41 AM 62.6 °F 62.6 °F 100% 30.14 in 1.5 mi East 9.2 mph - N/A   Overcast
3:56 AM 63.0 °F 63.0 °F 100% 29.74 in 1.5 mi East 9.2 mph - N/A   Overcast
4:18 AM 62.6 °F 62.6 °F 100% 30.14 in 2.5 mi ESE 10.4 mph - N/A   Overcast
4:30 AM 62.6 °F 62.6 °F 100% 30.14 in 3.0 mi ESE 10.4 mph - N/A   Overcast
4:56 AM 64.0 °F 63.0 °F 96% 29.75 in 4.0 mi ESE 6.9 mph - N/A   Overcast
5:56 AM 64.0 °F 63.0 °F 96% 29.75 in 4.0 mi ESE 5.8 mph - N/A   Overcast
6:56 AM 64.0 °F 63.0 °F 96% 29.76 in 4.0 mi ESE 8.1 mph - N/A   Overcast
7:03 AM 64.4 °F 62.6 °F 94% 30.17 in 3.0 mi East 4.6 mph - N/A   Overcast
7:56 AM 64.0 °F 63.0 °F 96% 29.77 in 4.0 mi ESE 6.9 mph - N/A   Overcast
8:56 AM 66.0 °F 64.0 °F 93% 29.78 in 6.0 mi Variable 6.9 mph - 0.01 in   Overcast
9:56 AM 68.0 °F 64.9 °F 90% 29.78 in 7.0 mi ESE 5.8 mph - N/A   Overcast
10:56 AM 69.1 °F 66.0 °F 90% 29.78 in 7.0 mi ESE 9.2 mph - N/A   Overcast
11:18 AM 69.8 °F 66.2 °F 88% 30.18 in 8.0 mi East 8.1 mph - N/A   Overcast
11:56 AM 71.1 °F 66.9 °F 87% 29.76 in 9.0 mi East 8.1 mph - N/A   Overcast
12:56 PM 75.9 °F 69.1 °F 79% 29.76 in 10.0 mi Variable 6.9 mph - N/A   Mostly Cloudy
1:04 PM 75.2 °F 69.8 °F 83% 30.16 in 10.0 mi SE 8.1 mph - N/A   Scattered Clouds
1:43 PM 75.2 °F 69.8 °F 83% 30.14 in 10.0 mi Variable 5.8 mph - N/A   Mostly Cloudy
1:56 PM 77.0 °F 69.1 °F 76% 29.74 in 10.0 mi SE 5.8 mph - N/A   Mostly Cloudy
2:05 PM 77.0 °F 69.8 °F 78% 30.13 in 10.0 mi ESE 10.4 mph - N/A   Scattered Clouds
2:37 PM 77.0 °F 69.8 °F 78% 30.12 in 10.0 mi ESE 8.1 mph - N/A   Mostly Cloudy
2:51 PM 77.0 °F 68.0 °F 74% 30.11 in 10.0 mi ESE 9.2 mph - N/A   Scattered Clouds
2:56 PM 77.0 °F 69.1 °F 76% 29.71 in 10.0 mi ESE 6.9 mph - N/A   Scattered Clouds
3:15 PM 78.8 °F 69.8 °F 74% 30.10 in 10.0 mi ESE 8.1 mph - N/A   Mostly Cloudy
3:53 PM 78.8 °F 69.8 °F 74% 30.10 in 10.0 mi SE 5.8 mph - N/A   Scattered Clouds
3:56 PM 78.1 °F 69.1 °F 74% 29.70 in 10.0 mi Variable 5.8 mph - N/A   Scattered Clouds
4:56 PM 78.1 °F 68.0 °F 71% 29.69 in 10.0 mi SE 5.8 mph - N/A   Clear
5:56 PM 78.1 °F 70.0 °F 76% 29.69 in 10.0 mi SSE 4.6 mph - N/A   Clear
6:56 PM 73.9 °F 69.1 °F 85% 29.68 in 10.0 mi ESE 3.5 mph - N/A   Clear
7:56 PM 68.0 °F 68.0 °F 100% 29.68 in 10.0 mi ESE 4.6 mph - N/A   Clear
8:56 PM 66.9 °F 66.0 °F 97% 29.69 in 10.0 mi East 4.6 mph - N/A   Clear
9:56 PM 64.9 °F 64.9 °F 100% 29.70 in 9.0 mi ESE 4.6 mph - N/A   Clear
10:56 PM 66.0 °F 64.9 °F 96% 29.70 in 9.0 mi ESE 5.8 mph - N/A   Clear
11:56 PM 64.0 °F 63.0 °F 96% 29.70 in 6.0 mi ESE 3.5 mph - N/A   Clear